Location: Haliburton Scout Reserve
(45.0900°N, 78.3200°W)
Time: 20:00:37
(UTC-04:00)

STRAND 1 - Pass Details

Date: 29 March 2023
Orbit: 767 x 779 km, 98.4° (Epoch: 06 June)

Event Time Altitude Azimuth Distance (km) Brightness Sun altitude
Rises 05:53:38 0° 128° (SE) 3,247 ? -12.3°
Reaches altitude 10° 05:56:19 10° 115° (ESE) 2,322 ? -11.8°
Maximum altitude 06:00:21 24° 63° (ENE) 1,568 ? -11.1°
Drops below altitude 10° 06:04:22 10° 11° (N) 2,328 ? -10.5°
Sets 06:07:04 0° 358° (N) 3,258 ? -10.0°
